Temp
17 16 17 17 18 18 18 19 19 20 20 21 21 21 21 21 22 21 19 27 27 27 27 28 28 27 26 25 25 22 21 22 25 26 28 27 29 31 31 30 29 29 28 27 23
16 16 16 17 18 18 18 19 19 20 20 21 21 21 21 21 21 18 27 27 27 27 27 27 26 26 23 25 23 22 21 24 24 27 28 27 27 29 30 29 28 28 25 23 22
16 15 15 17 17 18 18 19 19 20 21 21 21 21 21 21 19 26 28 28 27 27 27 27 26 26 26 25 25 22 24 25 27 26 25 26 26 28 28 28 27 28 24 23 22
15 15 15 18 17 18 19 19 19 20 21 21 21 21 21 20 26 28 28 28 27 27 26 26 25 25 24 26 25 27 25 26 27 28 28 26 27 30 27 29 29 28 25 24 23
15 14 16 17 17 18 19 19 20 21 21 21 21 21 21 20 21 27 27 28 27 27 26 25 26 25 26 26 25 25 27 26 26 24 23 26 26 28 28 28 28 27 25 24 24
14 15 17 17 17 18 19 20 21 22 22 22 20 20 19 22 27 27 28 28 27 26 26 25 26 25 26 26 26 26 26 24 24 26 25 28 28 27 29 28 26 26 26 24 24
15 15 17 17 18 19 19 21 22 22 23 22 20 20 19 21 27 27 27 28 27 27 27 27 27 27 26 26 26 26 26 25 28 28 28 26 29 28 28 27 25 26 27 26 25
15 16 16 17 18 19 20 21 22 22 22 21 20 19 19 27 27 28 28 28 28 27 27 28 27 26 26 26 24 25 23 25 27 26 29 28 27 28 27 26 25 26 26 27 26
15 16 16 17 18 19 21 22 21 21 21 20 19 19 22 27 27 28 28 28 29 29 28 28 26 23 23 23 21 20 25 26 25 27 27 28 27 28 27 26 26 25 25 26 27
14 15 16 17 19 20 22 22 21 20 20 19 19 20 25 25 27 28 28 28 29 28 26 25 20 22 19 20 23 25 24 24 25 26 26 26 26 25 27 26 26 25 24 25 26
14 15 16 17 19 21 22 21 16 18 19 21 20 22 22 25 27 28 29 29 27 24 24 23 22 23 24 23 24 25 25 24 24 25 27 27 24 26 25 27 27 25 25 24 26
14 15 16 18 19 20 21 16 17 17 15 19 18 19 22 24 24 27 29 28 27 25 25 22 23 24 24 24 23 24 25 24 25 26 26 26 26 25 26 26 26 26 25 24 24
14 15 15 18 19 20 18 18 17 17 16 19 20 21 23 23 24 25 28 27 27 26 25 24 26 25 26 26 25 24 24 26 26 26 26 24 25 24 28 25 24 24 24 23 23
14 14 15 18 19 16 18 19 19 18 17 23 24 26 24 24 27 26 28 27 26 26 25 24 25 26 26 26 25 27 26 27 28 25 25 24 24 25 24 24 26 25 22 22 23
14 14 15 15 14 15 19 20 20 19 22 27 26 27 25 27 28 27 28 28 27 27 25 25 26 27 26 27 27 27 26 25 26 24 24 24 23 25 23 25 26 25 25 23 22
14 14 14 14 14 18 19 20 20 19 24 27 27 27 27 27 28 27 27 27 26 26 24 24 25 26 26 28 27 27 27 22 20 20 22 23 23 23 24 25 23 24 25 24 24
14 15 14 14 16 18 18 18 18 21 25 25 27 26 26 26 27 27 27 26 24 24 23 23 26 26 27 27 27 24 21 20 23 20 23 22 23 24 25 25 25 24 23 23 23
14 15 16 17 17 17 18 17 22 24 24 25 25 25 24 24 25 25 25 23 25 24 22 23 25 26 27 28 27 24 23 21 25 22 21 21 25 26 27 24 23 23 22 23 23
15 16 16 18 18 17 14 17 20 23 24 24 24 23 22 23 24 23 24 22 25 24 24 23 25 26 27 26 26 26 23 22 21 20 21 21 23 25 24 25 23 23 23 22 21
12 13 16 17 17 18 14 17 19 21 23 23 23 23 22 22 23 23 23 24 23 23 23 24 24 25 26 26 24 25 24 23 19 24 25 21 22 22 22 22 21 22 20 20 20
11 12 16 17 17 13 15 16 19 22 24 23 23 23 22 22 22 22 21 24 22 22 22 22 22 24 24 23 24 22 21 19 19 18 20 20 21 22 23 21 19 19 19 19 19
9 14 15 16 14 9 14 17 20 23 23 23 22 22 22 21 21 22 22 21 20 22 23 21 19 21 24 21 22 22 22 18 18 21 18 18 19 23 20 18 17 18 19 19 19
9 9 15 16 14 14 15 19 21 22 23 23 23 23 22 21 22 21 21 22 20 20 21 21 19 19 21 22 22 21 22 22 17 16 19 19 20 20 19 18 18 17 18 19 19
8 13 12 10 10 15 18 20 21 21 23 22 22 22 22 21 18 20 20 22 20 19 19 18 17 19 19 22 21 22 21 22 19 17 18 18 20 20 17 17 17 17 17 18 19
6 11 12 13 14 15 17 18 20 22 22 21 22 22 21 20 19 19 19 19 21 18 18 17 20 20 21 20 21 21 21 21 20 19 19 20 20 17 16 16 16 17 18 18 18
8 10 9 11 13 14 16 19 20 21 20 21 20 19 20 20 21 19 19 19 20 19 19 15 19 19 20 21 19 20 20 20 20 20 20 18 18 17 18 17 17 16 17 17 17
8 9 9 11 13 14 14 19 20 19 20 18 19 18 19 19 19 19 18 18 19 20 18 17 16 16 17 18 19 18 20 21 17 17 18 18 18 18 18 17 16 15 15 16 16
Height
833 833 830 828 825 822 820 817 814 811 808 805 802 799 795 791 788 785 782 778 778 779 780 781 782 782 783 785 786 792 824 833 817 812 795 783 782 764 758 765 761 759 762 761 765
833 832 830 828 824 822 819 816 813 810 807 804 801 798 794 790 785 782 778 777 778 780 781 781 783 783 789 788 791 803 826 816 799 791 790 780 781 772 768 768 767 761 760 764 766
834 833 831 827 824 821 817 814 811 808 805 802 800 797 793 790 788 778 776 775 777 779 781 782 783 784 790 791 793 803 813 796 787 784 783 781 777 769 768 774 765 760 762 766 766
834 833 830 825 823 819 816 813 809 806 803 801 798 796 792 791 800 778 777 777 778 780 781 782 783 790 798 798 791 799 791 789 782 775 777 779 769 767 766 757 747 747 754 760 763
836 833 829 824 821 817 813 810 806 803 801 799 797 795 793 794 787 778 778 778 778 780 781 782 785 790 798 794 794 798 789 784 778 777 778 771 771 768 760 748 746 748 753 756 759
835 832 827 823 819 814 810 806 802 799 797 797 795 794 795 799 779 778 778 778 779 780 781 782 784 784 790 792 794 788 787 785 777 773 772 770 764 763 745 741 746 748 749 751 753
834 830 825 822 817 811 807 802 798 795 793 793 793 793 794 789 778 777 777 778 778 779 780 780 780 784 787 792 785 786 792 785 774 771 773 768 767 772 750 747 748 747 747 748 751
833 828 824 820 814 809 804 799 795 792 790 791 792 793 792 778 777 777 777 776 777 777 778 779 779 782 786 786 792 796 801 812 780 778 766 767 792 761 750 751 752 749 750 749 748
831 827 824 818 812 806 801 796 793 792 791 791 792 793 790 777 776 775 775 776 776 776 776 778 780 791 792 807 820 818 820 812 802 777 776 775 786 758 752 755 754 753 752 748 745
830 827 822 816 811 805 799 794 793 793 792 792 793 797 780 783 777 776 775 776 777 776 780 783 795 806 815 822 840 822 821 817 812 788 781 787 784 766 754 756 755 752 749 749 747
830 826 821 816 811 805 800 796 800 798 795 795 795 793 786 781 777 775 776 777 778 786 802 797 812 820 810 808 808 809 815 818 802 788 787 785 788 768 758 755 754 752 750 747 740
830 825 820 816 810 808 805 809 820 819 814 790 789 789 785 785 788 776 776 784 788 803 798 811 818 802 799 801 807 811 812 814 797 786 787 786 784 774 761 755 751 748 748 743 736
829 825 821 815 811 811 811 815 816 813 818 795 786 785 782 784 788 783 777 783 792 801 803 814 803 794 797 799 804 808 811 805 804 791 786 793 794 787 758 758 752 748 745 737 732
828 826 821 815 815 814 813 813 812 810 830 800 787 779 781 781 785 775 776 782 793 801 803 807 796 796 799 801 799 806 793 792 792 805 820 798 830 793 779 772 753 750 746 740 726
828 825 822 819 819 817 815 811 809 811 842 788 784 775 778 784 781 781 776 780 797 798 803 810 800 798 805 795 791 801 789 798 796 808 810 811 825 801 785 779 765 754 743 737 729
827 825 821 820 819 815 813 810 809 834 832 796 782 786 788 782 782 780 781 779 785 795 801 803 789 792 792 782 782 782 789 808 817 826 839 819 824 817 798 783 773 757 747 738 728
825 823 820 819 816 814 813 810 837 839 799 805 795 788 793 796 790 788 795 801 814 821 826 810 797 787 782 791 784 796 820 851 845 856 845 819 823 808 782 771 768 763 752 746 733
823 820 816 814 814 814 814 825 833 813 808 794 797 796 807 803 799 798 804 818 803 812 828 832 827 796 782 788 796 806 816 849 846 860 849 821 820 801 770 772 769 765 760 749 741
820 816 813 813 812 813 820 843 832 816 805 806 801 815 818 808 805 809 813 820 808 807 824 829 820 792 786 786 791 804 826 817 841 848 850 838 811 783 782 774 771 766 761 759 753
820 817 814 813 813 814 829 838 825 810 802 803 818 815 826 821 816 817 821 812 816 807 805 814 829 802 794 788 794 802 806 831 845 845 841 841 830 828 803 795 785 778 777 770 761
822 820 815 815 815 822 838 835 820 804 799 807 814 820 824 825 822 826 830 813 813 810 807 812 822 817 803 815 818 821 827 834 841 851 858 861 839 810 802 798 797 791 785 779 773
822 825 817 817 829 844 836 827 812 804 799 804 810 815 820 824 826 825 828 825 814 809 816 818 831 836 823 816 811 813 824 837 854 849 855 859 844 799 801 801 801 797 789 782 777
827 827 819 818 836 837 828 819 811 808 806 806 814 812 815 824 830 827 828 816 816 817 822 819 838 854 839 827 815 825 822 824 841 849 849 855 839 804 801 805 804 802 794 786 778
828 828 824 823 830 827 824 819 816 806 807 807 813 814 820 829 834 835 831 821 819 821 820 820 841 843 857 836 831 831 828 822 835 853 844 843 828 816 819 816 809 805 799 791 783
827 825 825 832 828 825 823 821 818 815 808 810 816 818 823 834 838 838 833 830 822 825 824 830 838 835 830 830 827 826 828 826 833 831 838 827 827 829 827 821 815 808 800 794 788
827 826 827 828 824 826 827 820 818 816 816 817 823 826 824 832 830 840 835 835 833 829 830 837 841 838 836 827 832 832 825 824 823 821 823 826 830 825 820 818 813 810 804 799 794
822 823 823 829 826 828 830 819 817 815 818 820 822 829 831 830 826 826 828 829 828 829 835 838 845 851 852 840 836 842 822 819 829 829 826 832 826 820 820 818 817 814 809 804 798
Wind_Speed
16 17 18 18 19 20 20 21 21 21 22 22 23 21 21 22 23 15 6 4 1 2 4 1 2 3 1 3 3 3 4 3 4 4 5 4 2 3 1 3 3 6 3 3 23
17 19 20 20 21 21 21 22 22 22 23 22 23 18 20 21 20 9 3 4 8 4 2 3 2 4 3 2 2 4 4 8 6 3 6 7 2 6 3 3 4 4 5 17 26
18 20 21 21 22 23 23 23 23 23 23 21 21 17 18 16 4 4 9 2 9 5 1 0 1 1 3 2 2 2 5 4 6 7 6 5 6 4 4 3 8 13 7 13 20
19 21 23 22 24 24 24 25 23 22 22 19 18 16 15 5 2 3 7 6 6 2 1 3 3 3 3 1 1 1 6 4 6 4 3 4 3 3 6 10 5 11 15 16 15
20 22 23 24 26 26 26 26 24 23 20 17 14 13 6 4 7 5 3 2 4 3 3 3 3 3 1 2 1 4 4 3 9 10 8 2 9 7 8 13 2 8 14 16 15
21 23 24 26 27 27 28 27 26 22 19 15 10 8 3 3 2 6 2 1 1 1 3 3 4 3 1 2 2 3 5 8 8 5 5 4 6 8 10 8 7 11 15 14 17
22 24 25 27 29 29 30 28 24 23 18 11 4 2 2 10 3 7 3 3 2 2 1 4 3 3 2 4 2 3 6 8 2 4 5 5 6 4 8 3 10 13 14 12 14
23 24 26 29 29 30 30 26 24 14 7 2 2 1 6 4 8 11 10 10 9 13 13 10 5 3 1 2 7 4 5 6 6 9 3 4 9 5 6 6 10 9 8 12 15
23 25 28 30 31 31 26 24 9 6 6 4 3 2 8 8 5 8 7 4 2 3 1 1 3 3 6 4 5 7 2 3 10 3 4 6 8 11 5 5 8 8 8 12 14
23 26 29 29 30 29 24 10 5 4 5 3 1 2 4 4 7 10 3 3 2 3 5 7 6 4 4 6 0 3 4 5 5 6 6 6 7 9 1 5 8 9 9 9 11
23 26 28 29 30 19 20 4 8 5 6 3 6 4 5 12 4 1 0 4 3 7 3 4 5 2 4 4 4 2 3 3 6 5 3 4 7 12 10 3 6 8 8 10 14
22 25 28 28 24 11 18 9 3 5 8 6 8 6 10 3 4 3 3 3 3 0 2 6 1 5 5 4 5 4 3 7 6 3 3 7 10 7 7 9 7 8 8 11 8
21 25 28 28 10 12 7 7 17 2 1 7 4 3 3 9 5 5 4 2 2 1 1 4 4 5 3 3 2 3 4 3 5 5 3 7 7 8 8 4 8 7 8 9 13
19 22 26 27 4 17 5 17 19 5 4 5 3 3 4 2 2 5 4 4 3 0 2 3 4 4 5 5 3 4 3 4 2 3 2 4 3 6 8 11 15 13 10 8 3
18 20 22 21 11 7 9 19 11 3 4 2 1 4 3 3 2 6 1 4 2 1 4 6 3 4 6 4 4 6 5 4 2 2 2 6 4 8 7 9 14 13 13 10 7
17 18 21 12 16 7 14 17 2 5 1 3 3 2 3 2 2 2 3 6 1 2 2 7 3 3 6 3 4 2 1 5 4 3 3 5 4 6 4 6 10 8 14 13 12
16 17 19 18 4 11 15 4 5 3 4 5 2 2 3 4 3 2 3 2 2 4 6 6 3 4 1 4 1 7 7 4 5 5 4 1 2 7 6 7 5 10 12 13 11
17 19 15 15 12 11 6 5 2 1 2 4 4 4 4 7 4 4 3 4 2 4 1 2 5 6 6 1 1 3 5 5 2 2 5 4 2 5 2 10 10 9 9 10 15
17 13 8 2 3 6 5 4 5 2 3 5 2 6 6 5 3 4 4 4 2 1 4 2 4 4 5 4 3 1 6 2 5 2 2 4 6 10 10 16 15 14 14 17 17
14 10 4 1 9 3 4 4 3 3 5 3 4 3 4 7 4 4 5 5 6 4 3 1 3 1 6 4 8 7 3 4 4 1 3 5 5 4 12 12 11 15 16 17 19
6 2 6 6 2 5 3 5 4 5 1 3 2 4 3 3 3 4 5 0 5 7 5 2 2 6 2 6 1 5 4 4 4 3 4 1 5 5 5 6 10 9 10 13 15
2 2 3 5 4 1 2 4 4 3 3 5 5 4 3 4 4 3 3 3 10 3 3 3 3 2 1 7 2 3 3 4 4 5 1 3 6 2 5 11 11 12 13 13 12
2 2 2 1 3 2 4 3 3 4 4 3 2 2 1 3 3 4 3 3 9 5 3 3 2 3 8 5 4 5 3 3 3 3 4 4 5 3 14 12 11 12 12 13 14
2 2 3 4 0 4 2 2 2 4 1 4 3 4 3 4 6 2 5 3 7 5 6 3 3 5 6 5 2 3 4 1 3 2 3 5 6 11 10 12 12 12 9 11 13
2 2 1 3 3 3 1 2 0 1 2 5 4 4 3 3 3 3 4 6 4 9 5 4 0 2 3 4 2 3 7 4 6 7 5 4 3 4 6 7 8 7 11 14 16
4 3 2 1 2 6 0 2 3 3 3 2 6 3 3 4 3 5 2 1 2 5 3 4 2 1 3 3 4 4 9 9 6 1 3 3 3 2 3 4 8 9 10 13 14
4 1 3 3 3 5 5 2 3 4 3 5 5 5 4 4 3 1 3 2 3 2 2 1 3 3 4 4 6 7 5 2 5 3 2 2 4 5 2 5 5 6 6 6 8
Wind_Direction
9 2 360 357 355 352 348 347 345 344 343 341 340 337 331 325 320 309 256 219 42 106 134 268 4 9 80 86 78 130 73 218 245 203 252 221 340 264 217 186 229 190 176 223 152
5 360 358 354 353 350 346 345 342 341 340 340 339 336 331 326 323 282 342 267 193 140 79 71 15 350 50 73 29 95 124 221 216 224 271 286 193 257 216 227 267 285 57 133 144
2 357 355 352 351 347 344 342 341 338 335 339 339 335 330 329 328 270 354 14 178 183 3 47 54 43 67 40 174 161 191 216 263 236 234 262 318 230 175 231 214 220 145 159 159
357 354 352 351 347 345 341 338 336 335 331 335 338 335 329 340 139 4 17 84 125 153 111 81 56 63 69 14 204 248 254 217 274 241 288 244 274 252 199 231 207 219 158 164 178
351 350 350 349 344 342 339 335 334 330 327 328 332 337 344 357 254 333 322 81 93 81 93 135 104 127 92 245 318 183 259 205 255 281 252 307 249 221 240 250 229 171 156 179 184
349 347 349 345 342 340 338 334 332 326 321 318 321 336 23 314 306 353 227 253 346 109 128 167 173 206 175 235 173 227 261 275 279 281 259 238 270 141 260 232 157 171 185 183 192
346 346 347 342 342 340 335 333 330 323 315 307 316 342 104 241 254 337 299 258 266 267 250 230 187 135 140 310 284 282 316 334 319 333 300 221 342 222 273 187 169 189 202 197 200
343 345 344 342 343 339 335 336 330 338 348 35 69 55 249 263 282 285 269 277 279 268 254 286 225 107 112 320 2 15 52 12 296 350 292 70 298 302 270 177 204 199 209 219 221
342 343 341 342 344 338 338 334 347 30 39 51 78 73 281 318 305 338 237 231 313 353 10 101 73 74 23 45 9 0 2 342 321 320 318 49 298 299 321 232 229 232 226 228 241
341 341 340 344 344 342 345 342 13 22 19 34 4 7 312 312 319 326 294 243 3 0 30 41 47 48 35 56 263 330 342 314 246 301 347 348 277 289 213 201 234 244 232 229 231
338 339 340 344 342 356 3 11 10 356 26 267 272 265 274 330 313 330 44 122 52 49 47 359 54 264 246 206 211 243 225 259 268 264 287 303 282 293 321 239 227 240 244 241 227
335 338 341 343 343 15 39 78 71 273 309 252 245 267 274 311 315 303 139 95 73 76 19 17 277 228 243 238 213 220 289 286 284 266 167 323 306 318 324 310 300 302 292 257 241
335 339 341 345 355 12 43 52 348 174 261 300 218 214 224 152 209 261 126 111 104 42 110 153 243 287 201 292 251 209 190 242 236 337 11 334 339 330 324 316 320 299 271 279 250
332 338 343 347 19 346 328 339 346 165 39 283 301 274 124 178 257 224 192 125 42 214 166 237 295 310 352 333 136 346 236 249 289 62 254 27 272 314 322 326 6 342 318 277 341
327 336 339 344 329 319 317 332 346 130 60 278 107 159 140 149 297 359 225 70 152 92 78 268 300 322 330 231 180 237 62 352 31 85 30 342 65 279 353 336 332 328 340 334 347
322 330 330 334 315 300 327 332 37 41 55 2 129 138 88 351 337 52 69 46 62 101 349 235 281 230 224 273 208 96 44 41 53 55 29 284 116 302 312 291 306 311 332 342 7
317 322 314 304 278 307 330 12 45 113 320 331 354 71 82 342 328 76 116 40 73 21 359 334 282 284 266 336 39 63 51 352 7 9 234 344 34 235 288 302 276 304 311 327 1
317 316 306 290 276 284 339 52 98 315 327 326 23 69 73 0 15 32 58 13 31 99 52 40 347 16 322 207 158 78 128 141 287 269 275 319 276 256 243 331 329 337 324 342 359
323 320 304 295 288 152 73 73 210 219 302 338 46 61 359 1 40 68 46 9 296 213 160 37 294 320 17 4 83 89 38 175 106 354 23 297 306 311 9 5 4 354 359 352 348
335 329 317 132 124 91 76 220 248 231 320 45 89 42 46 337 39 49 23 345 339 22 198 154 331 10 298 42 17 90 154 24 14 324 298 307 300 266 347 338 342 352 358 354 357
336 30 344 156 46 51 148 228 279 266 284 63 100 82 75 1 11 34 343 235 10 328 53 64 108 291 46 19 360 359 9 39 106 119 167 296 274 205 283 318 336 342 358 359 355
37 72 32 127 53 33 160 206 281 301 11 63 84 87 91 24 38 66 83 335 329 281 38 348 129 4 312 296 203 93 121 119 102 292 134 153 272 90 9 31 25 10 3 357 359
107 254 62 319 133 276 275 277 266 335 14 52 90 66 53 62 66 64 11 318 4 43 54 359 14 25 347 349 8 55 38 84 97 84 215 157 266 89 22 21 19 17 2 356 357
102 98 338 51 242 144 213 248 299 327 312 73 112 66 79 52 24 86 1 352 355 22 27 105 95 155 198 223 204 329 320 312 126 133 252 232 288 349 6 9 6 4 353 358 6
46 241 212 192 249 179 143 322 100 112 64 37 53 75 116 91 50 18 358 339 7 351 23 71 324 331 275 240 242 251 262 212 208 227 188 260 323 2 350 341 336 334 7 15 12
140 145 13 140 77 122 85 238 196 104 40 37 103 40 84 133 164 205 190 251 264 343 33 3 289 21 291 314 358 273 257 253 239 216 288 341 94 265 269 289 14 3 8 13 9
184 224 108 299 131 117 202 186 136 112 58 63 129 101 84 162 168 216 209 247 242 246 229 75 124 78 260 344 331 308 277 334 99 38 220 214 221 233 257 47 356 342 347 356 357